loading
DOY 175 | 2024-06-23T11:11:09Z
Showing default

PREFIRE-1, 59965

Orbit data source: Space-Track

PREFIRE-1, 59965 is a payload satellite owned by JPL (US) in SSO that was launched on Wed, 05 Jun 2024 UTC via an Electron launch vehicle from the Rocket Lab Launch Complex (RLLC). Payloads include a variety of satellites, spacecraft, and rockets equipped with specific instruments for various scientific and technological missions. These include communications satellites like Starlink; space stations such as the ISS; scientific satellites like the Hubble; Earth observation satellites from companies like Planet Labs, Umbra, and HawkEye 360; GPS; miniature CubeSats for education and research; and military/defense satellites.

Loading next visibility...
Loading greatness...
PREFIRE-1 details
NORAD ID59965
COSPAR ID
2024-108A
Orbit
SSO
Last TLE update7 hours ago
Origin
Flag of USJPL (US)
ManufacturerJPL
BusCubesat 6U
MotorUnknown
Mass~10 kg wet, ~10 kg dry
Launch date (UTC)
2024-06-05 (3 weeks ago)
Launch vehicle
Electron
Launch site
Rocket Lab Launch Complex (RLLC)
Object type
Payload
Rocket body
Debris
Radar Cross SectionMedium (>0.1 m² and <1 m²)
Predictive object data (real-time)
Latitude-5.6758°
Longitude173.36085°
Altitude528.701 km
Speed7.601 km/s
Apparent Right ascension09h 57m 09s
Apparent Declination-22° 02' 18"
Sunlit
Object is in daylight
Predictive observer data (real-time)
Local Sidereal Time22:19:08
Azimuth16.264° NNE
Elevation-71.522°
Doppler factor1
Orbital elements
Apogee536.282 km
Perigee518.435 km
Semi-major axis6,905.496 km
Eccentricity0.0012922
Inclination97.4527°
RAAN325.8253°
Arg. of periapsis237.3075°
True anomaly122.81551°
Mean anomaly122.691°
Mean motion3.78226 °/min
BSTAR0.00026629
Period95.18 mins
Definitive object data (Epoch: 2024-06-23T04:00:46.823Z)
Latitude
Longitude-6.18988°
Altitude538.289 km
Speed7.591 km/s
True Right ascension21h 43m 18s
True Declination0° 00' 00"
Sunlit
Object was in full shadow at TLE epoch
TLE from 7 hours ago
0 PREFIRE-1
1 59965U 24108A   24175.16720860  .00004505  00000-0  26629-3 0  9990
2 59965  97.4527 325.8253 0012922 237.3075 122.6910 15.11908547  2724
Epoch: 2024-06-23T04:00Z
No data available
Other satellites on launch #108 in the year 2024 (2024-06-05 UTC)

PREFIRE-1 Visibility forecast

Observer location: 39.9160978°, -105.1181434, 0m alt.

PREFIRE-1 is not visible in the next 10 days
Span
Click to sort rows by Start time (UTC) header in descending order
Start Az.
Max El. time (UTC)
Max El. Az.
Max El.
End time (UTC)
End Az.